| time (UTC) | temp F | wind direction | speed knots | gust knots | rain 1hr in | rain 24hr in | rain mn in | humidity % | barometer mb |
| 20260509043756 | 71 | 335 | 0.0 | 0.9 | 0.00 | 0.00 | 0.00 | 83 | 1009.6 |
| 20260509043258 | 71 | 271 | 0.0 | 2.6 | 0.00 | 0.00 | 0.00 | 83 | 1009.4 |
| 20260509042757 | 72 | 259 | 0.0 | 3.5 | 0.00 | 0.00 | 0.00 | 83 | 1009.2 |
| 20260509042258 | 72 | 281 | 0.0 | 3.5 | 0.00 | 0.00 | 0.00 | 83 | 1009.2 |
| 20260509041754 | 72 | 238 | 0.0 | 1.7 | 0.00 | 0.00 | 0.00 | 83 | 1009.4 |
| 20260509041255 | 72 | 190 | 0.0 | 1.7 | 0.00 | 0.00 | 0.00 | 83 | 1009.4 |
| 20260509040749 | 72 | 134 | 0.0 | 0.9 | 0.00 | 0.00 | 0.00 | 83 | 1009.5 |
| 20260509040244 | 72 | 351 | 0.0 | 0.9 | 0.00 | 0.00 | 0.00 | 83 | 1009.9 |
| 20260509035737 | 72 | 351 | 0.0 | 0.0 | 0.00 | 0.00 | 0.00 | 82 | 1010.5 |
| 20260509035232 | 72 | 351 | 0.0 | 0.0 | 0.00 | 0.00 | 0.00 | 82 | 1010.6 |
| 20260509034724 | 72 | 351 | 0.0 | 0.0 | 0.00 | 0.00 | 0.00 | 82 | 1010.5 |
| 20260509034220 | 72 | 351 | 0.0 | 0.9 | 0.00 | 0.00 | 0.00 | 82 | 1010.6 |
| 20260509033713 | 72 | 351 | 0.0 | 0.9 | 0.00 | 0.00 | 0.00 | 82 | 1010.6 |
| 20260509033207 | 72 | 347 | 0.0 | 0.0 | 0.00 | 0.00 | 0.00 | 82 | 1010.5 |
| 20260509032702 | 72 | 347 | 0.0 | 0.0 | 0.00 | 0.00 | 0.00 | 81 | 1010.2 |
| 20260509032155 | 72 | 347 | 0.0 | 0.0 | 0.00 | 0.00 | 0.00 | 81 | 1009.9 |
| 20260509031648 | 72 | 347 | 0.0 | 0.0 | 0.00 | 0.00 | 0.00 | 81 | 1009.9 |
| 20260509031143 | 72 | 347 | 0.0 | 0.0 | 0.00 | 0.00 | 0.00 | 81 | 1009.9 |
| 20260509030637 | 72 | 347 | 0.0 | 0.9 | 0.00 | 0.00 | 0.00 | 81 | 1009.9 |
| 20260509030132 | 72 | 347 | 0.0 | 0.9 | 0.00 | 0.00 | 0.00 | 81 | 1009.8 |
| 20260509025625 | 72 | 147 | 0.0 | 0.9 | 0.00 | 0.00 | 0.00 | 81 | 1009.7 |
| 20260509025119 | 72 | 151 | 0.0 | 0.9 | 0.00 | 0.00 | 0.00 | 81 | 1009.5 |
| 20260509024925 | 72 | 37 | 0.0 | 1.7 | 0.00 | 0.00 | 0.00 | 81 | 1009.4 |
| 20260509024423 | 72 | 37 | 0.0 | 1.7 | 0.00 | 0.00 | 0.00 | 81 | 1009.3 |
| 20260509023602 | 72 | 131 | 0.0 | 1.7 | 0.00 | 0.00 | 0.00 | 81 | 1009.1 |
| 20260509023401 | 72 | 55 | 0.0 | 1.7 | 0.00 | 0.00 | 0.00 | 81 | 1008.9 |
| 20260509022549 | 72 | 60 | 0.0 | 1.7 | 0.00 | 0.00 | 0.00 | 81 | 1008.8 |
| 20260509022150 | 72 | 37 | 0.0 | 2.6 | 0.00 | 0.00 | 0.00 | 81 | 1008.8 |
| 20260509021337 | 72 | 167 | 0.0 | 0.9 | 0.00 | 0.00 | 0.00 | 80 | 1008.9 |
| 20260509020525 | 73 | 284 | 0.0 | 2.6 | 0.00 | 0.00 | 0.00 | 80 | 1008.9 |
| 20260509020019 | 73 | 277 | 0.0 | 2.6 | 0.00 | 0.00 | 0.00 | 80 | 1008.8 |
| 20260509015512 | 73 | 292 | 0.0 | 1.7 | 0.00 | 0.00 | 0.00 | 80 | 1008.8 |
| 20260509015318 | 73 | 262 | 0.0 | 0.9 | 0.00 | 0.00 | 0.00 | 79 | 1008.8 |
| 20260509014504 | 73 | 246 | 0.0 | 1.7 | 0.00 | 0.00 | 0.00 | 79 | 1008.6 |
| 20260509013957 | 72 | 254 | 0.0 | 1.7 | 0.00 | 0.00 | 0.00 | 79 | 1008.6 |
| 20260509013451 | 73 | 15 | 0.0 | 0.0 | 0.00 | 0.00 | 0.00 | 79 | 1008.6 |
| 20260509012943 | 73 | 15 | 0.0 | 0.0 | 0.00 | 0.00 | 0.00 | 79 | 1008.6 |
| 20260509012438 | 73 | 15 | 0.0 | 0.9 | 0.00 | 0.00 | 0.00 | 78 | 1008.6 |
| 20260509011932 | 73 | 15 | 0.0 | 0.9 | 0.00 | 0.00 | 0.00 | 78 | 1008.5 |
| 20260509011755 | 73 | 15 | 0.0 | 0.9 | 0.00 | 0.00 | 0.00 | 78 | 1008.5 |
| 20260509010919 | 73 | 1 | 0.0 | 0.9 | 0.00 | 0.00 | 0.00 | 78 | 1008.4 |
| 20260509010419 | 73 | 110 | 0.0 | 0.9 | 0.00 | 0.00 | 0.00 | 77 | 1008.4 |
| 20260509010238 | 73 | 257 | 0.0 | 1.7 | 0.00 | 0.00 | 0.00 | 77 | 1008.4 |
| 20260509005419 | 73 | 130 | 0.0 | 1.7 | 0.00 | 0.00 | 0.00 | 77 | 1008.3 |
| 20260509004920 | 73 | 300 | 0.0 | 5.2 | 0.00 | 0.00 | 0.00 | 77 | 1008.2 |
| 20260509004417 | 73 | 309 | 0.9 | 5.2 | 0.00 | 0.00 | 0.00 | 76 | 1008.1 |
| 20260509003917 | 73 | 244 | 0.9 | 3.5 | 0.00 | 0.00 | 0.00 | 76 | 1008.0 |
| 20260509003414 | 73 | 261 | 0.0 | 2.6 | 0.00 | 0.00 | 0.00 | 76 | 1007.9 |
| 20260509002918 | 74 | 311 | 0.0 | 2.6 | 0.00 | 0.00 | 0.00 | 76 | 1007.9 |
| 20260509002720 | 74 | 323 | 0.9 | 3.5 | 0.00 | 0.00 | 0.00 | 75 | 1007.9 |
| 20260509001913 | 74 | 129 | 0.9 | 3.5 | 0.00 | 0.00 | 0.00 | 75 | 1007.9 |
| 20260509001414 | 74 | 283 | 0.9 | 2.6 | 0.00 | 0.00 | 0.00 | 74 | 1007.9 |
| 20260509000914 | 74 | 42 | 0.0 | 2.6 | 0.00 | 0.00 | 0.00 | 74 | 1007.9 |
| 20260509000411 | 74 | 183 | 0.9 | 3.5 | 0.00 | 0.00 | 0.00 | 73 | 1008.1 |
| 20260508235912 | 74 | 354 | 0.9 | 2.6 | 0.00 | 0.00 | 0.00 | 73 | 1008.2 |
| 20260508235411 | 74 | 189 | 0.9 | 4.3 | 0.00 | 0.00 | 0.00 | 72 | 1008.2 |
| 20260508234910 | 75 | 219 | 0.9 | 4.3 | 0.00 | 0.00 | 0.00 | 72 | 1008.2 |
| 20260508234737 | 75 | 15 | 0.9 | 3.5 | 0.00 | 0.00 | 0.00 | 72 | 1008.3 |
| 20260508233905 | 76 | 271 | 0.9 | 3.5 | 0.00 | 0.00 | 0.00 | 71 | 1008.3 |
| 20260508233714 | 76 | 250 | 0.9 | 4.3 | 0.00 | 0.00 | 0.00 | 72 | 1008.3 |
| 20260508232852 | 76 | 6 | 0.9 | 4.3 | 0.00 | 0.00 | 0.00 | 71 | 1008.4 |
| 20260508232349 | 76 | 326 | 0.0 | 2.6 | 0.00 | 0.00 | 0.00 | 71 | 1008.5 |
| 20260508232156 | 76 | 40 | 0.0 | 1.7 | 0.00 | 0.00 | 0.00 | 71 | 1008.5 |
| 20260508231336 | 76 | 283 | 0.0 | 1.7 | 0.00 | 0.00 | 0.00 | 70 | 1008.5 |
| 20260508230831 | 77 | 256 | 0.0 | 2.6 | 0.00 | 0.00 | 0.00 | 71 | 1008.5 |
| 20260508230322 | 77 | 313 | 0.0 | 2.6 | 0.00 | 0.00 | 0.00 | 70 | 1008.5 |
| 20260508225816 | 77 | 274 | 0.0 | 2.6 | 0.00 | 0.00 | 0.00 | 71 | 1008.5 |
| 20260508225311 | 77 | 93 | 0.9 | 3.5 | 0.00 | 0.00 | 0.00 | 71 | 1008.5 |
| 20260508224803 | 77 | 205 | 0.9 | 4.3 | 0.00 | 0.00 | 0.00 | 71 | 1008.6 |
| 20260508224632 | 77 | 19 | 0.0 | 4.3 | 0.00 | 0.00 | 0.00 | 70 | 1008.5 |
| 20260508224110 | 77 | 264 | 0.0 | 4.3 | 0.00 | 0.00 | 0.00 | 71 | 1008.5 |
| 20260508223246 | 78 | 262 | 0.0 | 4.3 | 0.00 | 0.00 | 0.00 | 71 | 1008.4 |
| 20260508222742 | 78 | 9 | 0.0 | 4.3 | 0.00 | 0.00 | 0.00 | 71 | 1008.4 |
| 20260508222545 | 77 | 131 | 0.9 | 6.1 | 0.00 | 0.00 | 0.00 | 72 | 1008.4 |
| 20260508221730 | 77 | 68 | 0.9 | 6.1 | 0.00 | 0.00 | 0.00 | 71 | 1008.3 |
| 20260508221600 | 78 | 42 | 0.9 | 5.2 | 0.00 | 0.00 | 0.00 | 71 | 1008.2 |
| 20260508220719 | 78 | 159 | 0.0 | 2.6 | 0.00 | 0.00 | 0.00 | 70 | 1008.2 |
| 20260508220211 | 77 | 353 | 0.0 | 3.5 | 0.00 | 0.00 | 0.00 | 70 | 1008.1 |
| 20260508215705 | 77 | 18 | 0.9 | 3.5 | 0.00 | 0.00 | 0.00 | 71 | 1008.0 |
| 20260508215159 | 77 | 306 | 0.9 | 2.6 | 0.00 | 0.00 | 0.00 | 70 | 1008.2 |
| 20260508214652 | 77 | 298 | 0.9 | 2.6 | 0.00 | 0.00 | 0.00 | 71 | 1008.2 |
| 20260508214147 | 77 | 266 | 0.9 | 2.6 | 0.00 | 0.00 | 0.00 | 71 | 1008.1 |
| 20260508213952 | 77 | 153 | 0.9 | 4.3 | 0.00 | 0.00 | 0.00 | 70 | 1008.0 |
| 20260508213135 | 77 | 23 | 0.9 | 4.3 | 0.00 | 0.00 | 0.00 | 69 | 1008.2 |
| 20260508212628 | 77 | 108 | 0.9 | 4.3 | 0.00 | 0.00 | 0.00 | 70 | 1008.4 |
| 20260508212124 | 77 | 153 | 0.9 | 4.3 | 0.00 | 0.00 | 0.00 | 70 | 1008.5 |
| 20260508211931 | 76 | 314 | 0.9 | 4.3 | 0.00 | 0.00 | 0.00 | 70 | 1008.9 |
| 20260508211113 | 76 | 20 | 0.9 | 4.3 | 0.00 | 0.00 | 0.00 | 70 | 1009.0 |
| 20260508210918 | 76 | 276 | 0.9 | 3.5 | 0.00 | 0.00 | 0.00 | 70 | 1009.2 |
| 20260508210413 | 76 | 287 | 0.0 | 4.3 | 0.00 | 0.00 | 0.00 | 70 | 1009.5 |
| 20260508205552 | 76 | 173 | 0.0 | 4.3 | 0.00 | 0.00 | 0.00 | 70 | 1009.6 |
| 20260508205047 | 76 | 340 | 0.0 | 2.6 | 0.00 | 0.00 | 0.00 | 69 | 1009.8 |
| 20260508204541 | 76 | 244 | 0.0 | 1.7 | 0.00 | 0.00 | 0.00 | 69 | 1009.9 |
| 20260508204034 | 76 | 210 | 0.0 | 2.6 | 0.00 | 0.00 | 0.00 | 68 | 1010.0 |
| 20260508203529 | 77 | 227 | 0.0 | 2.6 | 0.00 | 0.00 | 0.00 | 68 | 1010.2 |
| 20260508203023 | 77 | 220 | 0.0 | 2.6 | 0.00 | 0.00 | 0.00 | 67 | 1010.2 |
| 20260508202517 | 78 | 303 | 0.0 | 2.6 | 0.00 | 0.00 | 0.00 | 67 | 1010.2 |
| 20260508202019 | 78 | 83 | 0.0 | 1.7 | 0.00 | 0.00 | 0.00 | 67 | 1010.2 |
| 20260508201515 | 78 | 283 | 0.0 | 2.6 | 0.00 | 0.00 | 0.00 | 66 | 1010.0 |
| 20260508201337 | 79 | 266 | 0.9 | 5.2 | 0.00 | 0.00 | 0.00 | 66 | 1010.1 |
| 20260508200514 | 79 | 358 | 0.9 | 5.2 | 0.00 | 0.00 | 0.00 | 65 | 1010.1 |
| 20260508200015 | 79 | 63 | 0.9 | 5.2 | 0.00 | 0.00 | 0.00 | 66 | 1010.1 |
| 20260508195514 | 79 | 338 | 0.9 | 4.3 | 0.00 | 0.00 | 0.00 | 65 | 1010.2 |
| 20260508195013 | 79 | 76 | 0.9 | 4.3 | 0.00 | 0.00 | 0.00 | 66 | 1010.2 |
| 20260508194822 | 79 | 37 | 0.9 | 6.1 | 0.00 | 0.00 | 0.00 | 66 | 1010.3 |
| 20260508194017 | 79 | 63 | 0.9 | 6.1 | 0.00 | 0.00 | 0.00 | 66 | 1010.3 |
| 20260508193512 | 79 | 121 | 0.0 | 2.6 | 0.00 | 0.00 | 0.00 | 66 | 1010.4 |
| 20260508193012 | 79 | 1 | 0.9 | 5.2 | 0.00 | 0.00 | 0.00 | 66 | 1010.3 |
| 20260508192511 | 79 | 91 | 0.9 | 5.2 | 0.00 | 0.00 | 0.00 | 66 | 1010.4 |
| 20260508192010 | 79 | 49 | 0.9 | 4.3 | 0.00 | 0.00 | 0.00 | 67 | 1010.4 |
| 20260508191511 | 78 | 96 | 0.9 | 3.5 | 0.00 | 0.00 | 0.00 | 66 | 1010.5 |
| 20260508191009 | 79 | 123 | 0.9 | 3.5 | 0.00 | 0.00 | 0.00 | 65 | 1010.5 |
| 20260508190509 | 79 | 278 | 0.9 | 3.5 | 0.00 | 0.00 | 0.00 | 63 | 1010.6 |
| 20260508190325 | 79 | 136 | 0.9 | 3.5 | 0.00 | 0.00 | 0.00 | 66 | 1010.6 |
| 20260508185509 | 78 | 30 | 1.7 | 6.1 | 0.00 | 0.00 | 0.00 | 65 | 1010.6 |
| 20260508185003 | 78 | 121 | 1.7 | 6.1 | 0.00 | 0.00 | 0.00 | 66 | 1010.7 |
| 20260508184808 | 78 | 108 | 1.7 | 5.2 | 0.00 | 0.00 | 0.00 | 67 | 1010.6 |
| 20260508183950 | 78 | 146 | 0.9 | 5.2 | 0.00 | 0.00 | 0.00 | 64 | 1010.8 |
| 20260508183447 | 78 | 63 | 1.7 | 5.2 | 0.00 | 0.00 | 0.00 | 65 | 1010.9 |
| 20260508182939 | 78 | 25 | 0.9 | 5.2 | 0.00 | 0.00 | 0.00 | 61 | 1010.9 |
| 20260508182433 | 78 | 106 | 0.0 | 3.5 | 0.00 | 0.00 | 0.00 | 63 | 1011.1 |
| 20260508182239 | 78 | 287 | 0.9 | 4.3 | 0.00 | 0.00 | 0.00 | 62 | 1011.1 |
| 20260508181420 | 78 | 44 | 0.0 | 4.3 | 0.00 | 0.00 | 0.00 | 64 | 1011.2 |
| 20260508180915 | 78 | 263 | 0.0 | 3.5 | 0.00 | 0.00 | 0.00 | 65 | 1011.4 |
| 20260508180409 | 78 | 13 | 0.9 | 3.5 | 0.00 | 0.00 | 0.00 | 63 | 1011.5 |
| 20260508175903 | 78 | 84 | 0.9 | 4.3 | 0.00 | 0.00 | 0.00 | 64 | 1011.6 |
| 20260508175357 | 77 | 11 | 0.9 | 4.3 | 0.00 | 0.00 | 0.00 | 66 | 1011.6 |
| 20260508175206 | 77 | 149 | 0.9 | 4.3 | 0.00 | 0.00 | 0.00 | 65 | 1011.7 |
| 20260508174716 | 78 | 45 | 0.9 | 2.6 | 0.00 | 0.00 | 0.00 | 64 | 1011.7 |
| 20260508173856 | 76 | 12 | 0.9 | 5.2 | 0.00 | 0.00 | 0.00 | 66 | 1011.7 |
| 20260508173350 | 76 | 32 | 1.7 | 5.2 | 0.00 | 0.00 | 0.00 | 66 | 1011.7 |
| 20260508172850 | 76 | 27 | 0.9 | 5.2 | 0.00 | 0.00 | 0.00 | 66 | 1011.8 |
| 20260508172702 | 76 | 92 | 0.9 | 3.5 | 0.00 | 0.00 | 0.00 | 65 | 1012.0 |
| 20260508172158 | 75 | 350 | 0.9 | 3.5 | 0.00 | 0.00 | 0.00 | 68 | 1012.2 |
| 20260508171348 | 74 | 146 | 0.9 | 5.2 | 0.00 | 0.00 | 0.00 | 69 | 1012.4 |
| 20260508170850 | 74 | 16 | 0.0 | 5.2 | 0.00 | 0.00 | 0.00 | 69 | 1012.5 |
| 20260508170348 | 74 | 42 | 0.9 | 4.3 | 0.00 | 0.00 | 0.00 | 68 | 1012.6 |
| 20260508165846 | 74 | 309 | 0.9 | 4.3 | 0.00 | 0.00 | 0.00 | 69 | 1012.7 |
| 20260508165346 | 74 | 124 | 0.0 | 4.3 | 0.00 | 0.00 | 0.00 | 67 | 1012.8 |
| 20260508164951 | 74 | 127 | 0.0 | 1.7 | 0.00 | 0.00 | 0.00 | 67 | 1013.0 |
| 20260508163846 | 74 | 77 | 0.0 | 1.7 | 0.00 | 0.00 | 0.00 | 66 | 1013.2 |
| 20260508163725 | 73 | 128 | 0.0 | 3.5 | 0.00 | 0.00 | 0.00 | 68 | 1013.2 |
| 20260508162848 | 72 | 138 | 0.9 | 4.3 | 0.00 | 0.00 | 0.00 | 69 | 1013.2 |
| 20260508162343 | 72 | 148 | 0.9 | 4.3 | 0.00 | 0.00 | 0.00 | 69 | 1013.4 |
| 20260508161843 | 73 | 80 | 0.9 | 3.5 | 0.00 | 0.00 | 0.00 | 68 | 1013.4 |
| 20260508161343 | 73 | 96 | 0.0 | 3.5 | 0.00 | 0.00 | 0.00 | 67 | 1013.4 |
| 20260508160842 | 73 | 338 | 0.0 | 5.2 | 0.00 | 0.00 | 0.00 | 69 | 1013.4 |
| 20260508160342 | 72 | 124 | 0.9 | 5.2 | 0.00 | 0.00 | 0.00 | 69 | 1013.4 |
| 20260508155843 | 72 | 92 | 0.0 | 2.6 | 0.00 | 0.00 | 0.00 | 67 | 1013.8 |
| 20260508155343 | 72 | 271 | 0.0 | 2.6 | 0.00 | 0.00 | 0.00 | 68 | 1013.9 |
| 20260508154843 | 72 | 222 | 0.9 | 5.2 | 0.00 | 0.00 | 0.00 | 68 | 1013.8 |
| 20260508154344 | 71 | 147 | 0.9 | 5.2 | 0.00 | 0.00 | 0.00 | 68 | 1013.8 |
| 20260508153842 | 72 | 358 | 0.0 | 3.5 | 0.00 | 0.00 | 0.00 | 67 | 1013.8 |
| 20260508153342 | 72 | 312 | 0.9 | 4.3 | 0.00 | 0.00 | 0.00 | 68 | 1013.8 |
| 20260508152840 | 71 | 45 | 0.9 | 4.3 | 0.00 | 0.00 | 0.00 | 68 | 1013.9 |
| 20260508152651 | 71 | 255 | 0.0 | 3.5 | 0.00 | 0.00 | 0.00 | 68 | 1014.0 |
| 20260508151840 | 71 | 257 | 0.0 | 1.7 | 0.00 | 0.00 | 0.00 | 68 | 1014.1 |
| 20260508151341 | 71 | 348 | 0.0 | 1.7 | 0.00 | 0.00 | 0.00 | 68 | 1014.0 |
| 20260508150837 | 71 | 281 | 0.0 | 1.7 | 0.00 | 0.00 | 0.00 | 68 | 1014.0 |
| 20260508150332 | 72 | 106 | 0.0 | 2.6 | 0.00 | 0.00 | 0.00 | 67 | 1014.0 |
| 20260508145832 | 71 | 86 | 0.0 | 2.6 | 0.00 | 0.00 | 0.00 | 70 | 1014.0 |
| 20260508145331 | 70 | 312 | 0.0 | 1.7 | 0.00 | 0.00 | 0.00 | 72 | 1013.7 |
| 20260508144831 | 69 | 24 | 0.9 | 3.5 | 0.00 | 0.00 | 0.00 | 72 | 1013.8 |
| 20260508144329 | 70 | 56 | 0.9 | 3.5 | 0.00 | 0.00 | 0.00 | 71 | 1013.9 |
| 20260508143828 | 70 | 48 | 0.9 | 4.3 | 0.00 | 0.00 | 0.00 | 70 | 1014.0 |
| 20260508143327 | 70 | 32 | 0.9 | 4.3 | 0.00 | 0.00 | 0.00 | 71 | 1014.2 |
| 20260508142824 | 69 | 27 | 0.9 | 3.5 | 0.00 | 0.00 | 0.00 | 73 | 1014.2 |
| 20260508142326 | 69 | 37 | 0.9 | 3.5 | 0.00 | 0.00 | 0.00 | 73 | 1014.1 |
| 20260508141825 | 68 | 90 | 0.0 | 2.6 | 0.00 | 0.00 | 0.00 | 75 | 1014.3 |
| 20260508141325 | 67 | 51 | 0.0 | 3.5 | 0.00 | 0.00 | 0.00 | 76 | 1014.3 |
| 20260508140824 | 67 | 15 | 0.0 | 3.5 | 0.00 | 0.00 | 0.00 | 75 | 1014.2 |
| 20260508140324 | 68 | 321 | 0.9 | 3.5 | 0.00 | 0.00 | 0.00 | 75 | 1014.2 |
| 20260508135823 | 68 | 131 | 0.9 | 3.5 | 0.00 | 0.00 | 0.00 | 77 | 1014.3 |
| 20260508135425 | 67 | 12 | 0.0 | 1.7 | 0.00 | 0.00 | 0.00 | 79 | 1014.3 |
| 20260508134320 | 66 | 40 | 0.0 | 1.7 | 0.00 | 0.00 | 0.00 | 82 | 1014.2 |
| 20260508133820 | 65 | 115 | 0.0 | 1.7 | 0.00 | 0.00 | 0.00 | 82 | 1014.3 |
| 20260508133319 | 65 | 115 | 0.0 | 0.9 | 0.00 | 0.00 | 0.00 | 82 | 1014.3 |
| 20260508132921 | 65 | 139 | 0.0 | 0.9 | 0.00 | 0.00 | 0.00 | 84 | 1014.3 |
| 20260508131817 | 64 | 37 | 0.0 | 0.9 | 0.00 | 0.00 | 0.00 | 86 | 1014.3 |
| 20260508131638 | 64 | 155 | 0.0 | 0.9 | 0.00 | 0.00 | 0.00 | 88 | 1014.3 |
| 20260508130818 | 63 | 39 | 0.0 | 0.9 | 0.00 | 0.00 | 0.00 | 89 | 1014.4 |
| 20260508130318 | 62 | 8 | 0.0 | 0.9 | 0.00 | 0.00 | 0.00 | 89 | 1014.7 |
| 20260508125817 | 62 | 8 | 0.0 | 0.9 | 0.00 | 0.00 | 0.00 | 88 | 1014.7 |
| 20260508125315 | 62 | 8 | 0.0 | 0.9 | 0.00 | 0.00 | 0.00 | 88 | 1014.3 |
| 20260508124814 | 62 | 8 | 0.0 | 0.0 | 0.00 | 0.00 | 0.00 | 88 | 1014.4 |
| 20260508124314 | 62 | 347 | 0.0 | 0.9 | 0.00 | 0.00 | 0.00 | 88 | 1014.9 |
| 20260508124124 | 62 | 29 | 0.0 | 0.9 | 0.00 | 0.00 | 0.00 | 88 | 1014.7 |
| 20260508123321 | 62 | 341 | 0.0 | 0.9 | 0.00 | 0.00 | 0.00 | 88 | 1014.7 |
| 20260508122814 | 62 | 341 | 0.0 | 0.9 | 0.00 | 0.00 | 0.00 | 88 | 1014.5 |
| 20260508122315 | 61 | 30 | 0.0 | 0.9 | 0.00 | 0.00 | 0.00 | 88 | 1014.6 |
| 20260508121816 | 61 | 30 | 0.0 | 0.9 | 0.00 | 0.00 | 0.00 | 88 | 1014.6 |
| 20260508121311 | 61 | 30 | 0.0 | 0.9 | 0.00 | 0.00 | 0.00 | 88 | 1014.6 |
| 20260508120810 | 61 | 30 | 0.0 | 0.0 | 0.00 | 0.00 | 0.00 | 88 | 1014.6 |
| 20260508120311 | 61 | 30 | 0.0 | 0.0 | 0.00 | 0.00 | 0.00 | 88 | 1014.9 |
| 20260508115812 | 61 | 30 | 0.0 | 0.0 | 0.00 | 0.00 | 0.00 | 87 | 1014.7 |
| 20260508115311 | 61 | 30 | 0.0 | 0.0 | 0.00 | 0.00 | 0.00 | 87 | 1014.4 |
| 20260508114810 | 62 | 30 | 0.0 | 0.0 | 0.00 | 0.00 | 0.00 | 87 | 1014.6 |
| 20260508114310 | 62 | 30 | 0.0 | 0.9 | 0.00 | 0.00 | 0.00 | 87 | 1014.9 |
| 20260508113811 | 62 | 30 | 0.0 | 1.7 | 0.00 | 0.00 | 0.00 | 87 | 1014.9 |
| 20260508113311 | 62 | 49 | 0.0 | 1.7 | 0.00 | 0.00 | 0.00 | 87 | 1014.2 |
| 20260508112806 | 62 | 27 | 0.0 | 0.9 | 0.00 | 0.00 | 0.00 | 87 | 1014.2 |
| 20260508112307 | 62 | 33 | 0.0 | 1.7 | 0.00 | 0.00 | 0.00 | 87 | 1014.3 |
| 20260508112120 | 62 | 33 | 0.0 | 1.7 | 0.00 | 0.00 | 0.00 | 87 | 1014.4 |
| 20260508111306 | 62 | 95 | 0.0 | 0.0 | 0.00 | 0.00 | 0.00 | 87 | 1014.5 |
| 20260508110807 | 62 | 138 | 0.0 | 0.0 | 0.00 | 0.00 | 0.00 | 87 | 1015.1 |
| 20260508110306 | 62 | 138 | 0.0 | 0.0 | 0.00 | 0.00 | 0.00 | 87 | 1015.1 |
| 20260508105807 | 62 | 130 | 0.0 | 0.0 | 0.00 | 0.00 | 0.00 | 88 | 1014.6 |
| 20260508105307 | 62 | 101 | 0.0 | 0.0 | 0.00 | 0.00 | 0.00 | 88 | 1014.7 |
| 20260508104810 | 62 | 144 | 0.0 | 0.0 | 0.00 | 0.00 | 0.00 | 88 | 1015.2 |
| 20260508104617 | 62 | 6 | 0.0 | 0.0 | 0.00 | 0.00 | 0.00 | 89 | 1015.2 |
| 20260508103802 | 61 | 6 | 0.0 | 0.0 | 0.00 | 0.00 | 0.00 | 89 | 1014.3 |
| 20260508103303 | 61 | 6 | 0.0 | 0.0 | 0.00 | 0.00 | 0.00 | 89 | 1014.1 |
| 20260508103128 | 61 | 6 | 0.0 | 0.0 | 0.00 | 0.00 | 0.00 | 89 | 1013.8 |
| 20260508102306 | 61 | 12 | 0.0 | 0.0 | 0.00 | 0.00 | 0.00 | 89 | 1013.8 |
| 20260508101802 | 61 | 12 | 0.0 | 0.0 | 0.00 | 0.00 | 0.00 | 89 | 1013.6 |
| 20260508101616 | 61 | 12 | 0.0 | 0.0 | 0.00 | 0.00 | 0.00 | 89 | 1013.4 |
| 20260508100802 | 61 | 12 | 0.0 | 0.0 | 0.00 | 0.00 | 0.00 | 89 | 1013.4 |
| 20260508100615 | 61 | 12 | 0.0 | 0.9 | 0.00 | 0.00 | 0.00 | 89 | 1013.7 |
| 20260508095802 | 61 | 12 | 0.0 | 0.9 | 0.00 | 0.00 | 0.00 | 89 | 1013.3 |
| 20260508095306 | 61 | 13 | 0.0 | 0.9 | 0.00 | 0.00 | 0.00 | 89 | 1013.3 |
| 20260508094802 | 61 | 239 | 0.0 | 0.9 | 0.00 | 0.00 | 0.00 | 90 | 1013.4 |
| 20260508094302 | 61 | 239 | 0.0 | 0.0 | 0.00 | 0.00 | 0.00 | 90 | 1013.6 |
| 20260508093806 | 60 | 240 | 0.0 | 0.0 | 0.00 | 0.00 | 0.00 | 90 | 1014.0 |
| 20260508093303 | 61 | 240 | 0.0 | 0.0 | 0.00 | 0.00 | 0.00 | 90 | 1013.9 |
| 20260508092802 | 61 | 240 | 0.0 | 0.0 | 0.00 | 0.00 | 0.00 | 90 | 1013.7 |
| 20260508092312 | 61 | 240 | 0.0 | 0.0 | 0.00 | 0.00 | 0.00 | 89 | 1013.7 |
| 20260508091758 | 61 | 240 | 0.0 | 0.0 | 0.00 | 0.00 | 0.00 | 88 | 1013.8 |
| 20260508091301 | 61 | 240 | 0.0 | 0.0 | 0.00 | 0.00 | 0.00 | 88 | 1013.9 |
| 20260508090758 | 61 | 240 | 0.0 | 0.0 | 0.00 | 0.00 | 0.00 | 88 | 1014.1 |
| 20260508090300 | 61 | 240 | 0.0 | 0.0 | 0.00 | 0.00 | 0.00 | 88 | 1014.1 |
| 20260508085757 | 61 | 240 | 0.0 | 0.9 | 0.00 | 0.00 | 0.00 | 88 | 1014.2 |
| 20260508085607 | 61 | 240 | 0.0 | 1.7 | 0.00 | 0.00 | 0.00 | 88 | 1014.0 |
| 20260508085102 | 61 | 324 | 0.0 | 1.7 | 0.00 | 0.00 | 0.00 | 88 | 1013.7 |
| 20260508084254 | 61 | 44 | 0.0 | 1.7 | 0.00 | 0.00 | 0.00 | 89 | 1013.6 |
| 20260508083757 | 61 | 38 | 0.0 | 0.9 | 0.00 | 0.00 | 0.00 | 89 | 1013.9 |
| 20260508083615 | 61 | 38 | 0.0 | 0.0 | 0.00 | 0.00 | 0.00 | 89 | 1014.3 |
| 20260508082757 | 61 | 38 | 0.0 | 0.0 | 0.00 | 0.00 | 0.00 | 90 | 1014.4 |
| 20260508082246 | 61 | 38 | 0.0 | 0.9 | 0.00 | 0.00 | 0.00 | 90 | 1014.5 |
| 20260508081746 | 61 | 39 | 0.0 | 0.9 | 0.00 | 0.00 | 0.00 | 90 | 1014.6 |
| 20260508081240 | 61 | 24 | 0.0 | 0.0 | 0.00 | 0.00 | 0.00 | 90 | 1014.6 |
| 20260508080739 | 60 | 24 | 0.0 | 0.0 | 0.00 | 0.00 | 0.00 | 90 | 1015.1 |
| 20260508080238 | 60 | 24 | 0.0 | 0.0 | 0.00 | 0.00 | 0.00 | 91 | 1015.4 |
| 20260508075737 | 60 | 24 | 0.0 | 0.0 | 0.00 | 0.00 | 0.00 | 91 | 1015.6 |
| 20260508075236 | 60 | 24 | 0.0 | 0.0 | 0.00 | 0.00 | 0.00 | 91 | 1015.4 |
| 20260508075036 | 60 | 24 | 0.0 | 0.0 | 0.00 | 0.00 | 0.00 | 91 | 1015.3 |
| 20260508074234 | 60 | 24 | 0.0 | 0.0 | 0.00 | 0.00 | 0.00 | 91 | 1015.1 |
| 20260508074046 | 60 | 24 | 0.0 | 0.0 | 0.00 | 0.00 | 0.00 | 91 | 1014.8 |
| 20260508073232 | 60 | 24 | 0.0 | 0.0 | 0.00 | 0.00 | 0.00 | 91 | 1014.7 |
| 20260508072732 | 60 | 24 | 0.0 | 0.0 | 0.00 | 0.00 | 0.00 | 91 | 1014.8 |
| 20260508072230 | 59 | 24 | 0.0 | 0.0 | 0.00 | 0.00 | 0.00 | 91 | 1014.9 |
| 20260508071730 | 59 | 24 | 0.0 | 0.0 | 0.00 | 0.00 | 0.00 | 91 | 1014.8 |
| 20260508071230 | 60 | 24 | 0.0 | 0.0 | 0.00 | 0.00 | 0.00 | 91 | 1014.9 |
| 20260508070731 | 60 | 24 | 0.0 | 0.0 | 0.00 | 0.00 | 0.00 | 91 | 1015.0 |
| 20260508070228 | 60 | 24 | 0.0 | 0.0 | 0.00 | 0.00 | 0.00 | 91 | 1014.8 |
| 20260508065729 | 59 | 24 | 0.0 | 0.0 | 0.00 | 0.00 | 0.00 | 90 | 1015.1 |
| 20260508065222 | 59 | 24 | 0.0 | 0.0 | 0.00 | 0.00 | 0.00 | 90 | 1015.2 |
| 20260508064716 | 59 | 24 | 0.0 | 0.0 | 0.00 | 0.00 | 0.00 | 90 | 1015.3 |
| 20260508064210 | 59 | 24 | 0.0 | 0.0 | 0.00 | 0.00 | 0.00 | 90 | 1015.4 |
| 20260508064013 | 59 | 24 | 0.0 | 0.0 | 0.00 | 0.00 | 0.00 | 91 | 1015.3 |
| 20260508063508 | 59 | 24 | 0.0 | 0.0 | 0.00 | 0.00 | 0.00 | 91 | 1015.4 |
| 20260508062653 | 59 | 24 | 0.0 | 0.0 | 0.00 | 0.00 | 0.00 | 91 | 1015.5 |
| 20260508062514 | 59 | 24 | 0.0 | 0.0 | 0.00 | 0.00 | 0.00 | 91 | 1015.5 |
| 20260508061640 | 58 | 24 | 0.0 | 0.0 | 0.00 | 0.00 | 0.00 | 91 | 1015.5 |
| 20260508061134 | 58 | 24 | 0.0 | 0.0 | 0.00 | 0.00 | 0.00 | 90 | 1015.4 |
| 20260508060628 | 59 | 24 | 0.0 | 0.0 | 0.00 | 0.00 | 0.00 | 90 | 1015.3 |
| 20260508060122 | 59 | 24 | 0.0 | 0.0 | 0.00 | 0.00 | 0.00 | 90 | 1015.5 |
| 20260508055617 | 59 | 24 | 0.0 | 0.0 | 0.00 | 0.00 | 0.00 | 90 | 1015.5 |
| 20260508055110 | 59 | 24 | 0.0 | 0.0 | 0.00 | 0.00 | 0.00 | 90 | 1015.5 |
| 20260508054604 | 59 | 24 | 0.0 | 0.0 | 0.00 | 0.00 | 0.00 | 90 | 1015.5 |
| 20260508054059 | 58 | 24 | 0.0 | 0.0 | 0.00 | 0.00 | 0.00 | 90 | 1015.5 |
| 20260508053551 | 58 | 24 | 0.0 | 0.0 | 0.00 | 0.00 | 0.00 | 89 | 1015.6 |
| 20260508053139 | 59 | 24 | 0.0 | 0.0 | 0.00 | 0.00 | 0.00 | 89 | 1015.6 |
| 20260508052036 | 59 | 24 | 0.0 | 0.0 | 0.00 | 0.00 | 0.00 | 89 | 1015.7 |
| 20260508051839 | 59 | 24 | 0.0 | 0.0 | 0.00 | 0.00 | 0.00 | 88 | 1015.6 |
| 20260508051025 | 59 | 24 | 0.0 | 0.0 | 0.00 | 0.00 | 0.00 | 88 | 1015.5 |
| 20260508050522 | 59 | 24 | 0.0 | 0.0 | 0.00 | 0.00 | 0.00 | 88 | 1015.5 |
| 20260508050019 | 59 | 24 | 0.0 | 0.0 | 0.00 | 0.00 | 0.00 | 88 | 1015.6 |
| 20260508045826 | 59 | 24 | 0.0 | 0.0 | 0.00 | 0.00 | 0.00 | 88 | 1015.5 |
| 20260508045114 | 59 | 24 | 0.0 | 0.0 | 0.00 | 0.00 | 0.00 | 88 | 1015.5 |
| 20260508044017 | 59 | 24 | 0.0 | 0.0 | 0.00 | 0.00 | 0.00 | 88 | 1015.3 |